This is the latest recevied weather packets stored in our database for station/object CQ0XVC-11. If no packets are shown the sender has not sent any weather packets the latest 10 day(s).
| Time | Temp. | Humidity | Pressure | Rain* | Wind** | Luminosity | Snow |
|---|---|---|---|---|---|---|---|
| 1777919702 | 15° C | 39% | 1003.4 hPa | 0 mm | - | - | - |
| 1777919399 | 15° C | 37% | 1003.4 hPa | 0 mm | - | - | - |
| 1777919098 | 15° C | 36% | 1003.4 hPa | 0 mm | - | - | - |
| 1777918834 | 15.56° C | 36% | 1003.4 hPa | 0 mm | - | - | - |
| 1777918795 | 15.56° C | 36% | 1003.4 hPa | 0 mm | - | - | - |
| 1777918493 | 15.56° C | 35% | 1003.2 hPa | 0 mm | - | - | - |
| 1777918191 | 15.56° C | 35% | 1003.4 hPa | 0 mm | - | - | - |
| 1777917931 | 15.56° C | 36% | 1003.2 hPa | 0 mm | - | - | - |
| 1777917586 | 15.56° C | 33% | 1003.3 hPa | 0 mm | - | - | - |
| 1777917285 | 15.56° C | 33% | 1003.5 hPa | 0 mm | - | - | - |
| 1777916378 | 16.11° C | 32% | 1003.3 hPa | 0 mm | - | - | - |
| 1777916119 | 16.11° C | 32% | 1003.3 hPa | 0 mm | - | - | - |
| 1777916076 | 16.11° C | 32% | 1003.3 hPa | 0 mm | - | - | - |
| 1777915773 | 16.67° C | 32% | 1003.3 hPa | 0 mm | - | - | - |
| 1777915472 | 16.67° C | 33% | 1003.2 hPa | 0 mm | - | - | - |
| 1777915169 | 16.11° C | 31% | 1003.3 hPa | 0 mm | - | - | - |
| 1777914867 | 16.11° C | 33% | 1003.2 hPa | 0 mm | - | - | - |
| 1777914565 | 16.67° C | 32% | 1003.2 hPa | 0 mm | - | - | - |
| 1777914263 | 17.22° C | 30% | 1003.3 hPa | 0 mm | - | - | - |
| 1777913995 | 17.22° C | 30% | 1003.1 hPa | 0 mm | - | - | - |
| 1777913960 | 17.22° C | 30% | 1003.1 hPa | 0 mm | - | - | - |
| 1777913659 | 17.22° C | 30% | 1003.2 hPa | 0 mm | - | - | - |
| 1777913356 | 17.22° C | 30% | 1003.1 hPa | 0 mm | - | - | - |
| 1777913054 | 16.67° C | 31% | 1003.1 hPa | 0 mm | - | - | - |
| 1777912752 | 16.67° C | 33% | 1003.1 hPa | 0 mm | - | - | - |
* Rain since midnight (hover to see other rain measurements)
** Current wind speed in m/s (hover to see current wind gust speed)